Temperature
21 20 20 20 20 20 19 19 19 19 18 18 18 18 18 17 17 17 17 17 17 17 17 17 17 16 16 16 16 16 16 16 16 16 16 17 17 17 17 17 17 17 17
20 20 20 20 20 20 19 19 19 19 18 18 18 18 17 17 17 17 17 17 17 17 16 16 16 16 16 16 16 16 16 16 16 16 16 16 17 17 17 17 17 17 17
21 20 20 20 20 20 20 19 19 19 18 18 18 18 17 17 17 17 17 17 17 16 16 16 16 16 16 16 16 16 16 16 16 16 16 16 16 16 17 17 17 17 17
21 21 20 20 20 20 20 19 19 19 18 18 18 17 17 17 17 17 17 16 16 16 16 16 16 16 16 16 16 16 16 16 16 16 16 16 16 16 16 16 16 16 16
21 21 21 20 20 20 20 19 19 19 18 18 18 17 17 17 17 17 17 16 16 16 16 16 16 16 16 16 16 16 16 16 16 16 16 16 16 16 16 16 16 16 16
21 21 21 20 20 20 20 19 19 19 18 18 18 17 17 17 17 17 17 16 16 16 16 16 16 16 16 16 15 15 15 15 16 16 16 16 16 16 16 16 16 16 16
21 21 21 21 20 20 20 19 19 19 18 18 18 17 17 17 17 17 17 16 16 16 16 16 16 16 16 15 15 15 15 15 15 15 15 15 16 16 16 15 15 15 15
22 21 21 21 21 20 20 19 19 19 18 18 18 17 17 17 17 17 17 16 16 16 16 16 15 15 15 15 15 15 15 15 15 15 15 15 15 15 15 15 15 15 15
22 22 22 21 21 20 20 20 19 19 18 18 18 17 17 17 17 17 16 16 16 16 16 16 15 15 15 15 15 15 15 15 15 15 15 15 15 15 15 15 15 15 15
22 22 22 21 21 21 20 20 19 19 19 18 18 17 17 17 17 17 16 16 16 16 16 16 15 15 15 15 15 15 15 15 15 15 15 15 15 15 15 15 15 15 15
22 22 22 21 21 21 20 20 19 19 18 18 18 17 17 17 17 16 16 16 16 16 16 16 15 15 15 15 15 15 15 15 15 15 15 15 15 15 15 15 15 14 14
22 22 22 21 21 21 20 20 19 19 18 18 18 17 17 17 17 17 16 16 16 16 16 16 16 15 15 15 15 15 14 14 14 14 14 14 14 14 14 14 14 14 14
22 21 21 21 21 20 20 20 19 19 19 18 18 17 17 17 17 16 16 16 16 16 16 15 15 15 15 15 15 14 14 14 14 14 14 14 14 14 14 14 14 14 14
22 21 21 21 20 20 20 20 19 19 19 18 18 17 17 17 17 16 16 16 16 16 15 15 15 15 15 15 14 14 14 14 14 14 14 14 14 14 14 14 14 14 13
21 21 21 21 21 20 20 19 19 19 19 18 18 17 17 17 16 16 16 16 16 15 15 15 15 15 15 15 14 14 14 14 14 14 14 13 13 13 13 13 13 13 13
21 21 21 21 21 20 20 19 19 19 18 18 18 17 17 17 16 16 16 16 16 15 15 15 15 15 15 14 14 14 14 14 14 13 13 13 13 13 13 13 13 13 13
21 21 21 21 21 20 20 19 19 19 18 18 18 17 17 17 16 16 16 16 16 15 15 15 15 15 15 14 14 14 13 13 13 13 13 13 13 13 13 13 13 13 12
21 21 21 21 20 20 19 19 19 18 18 18 17 17 16 16 16 16 16 16 15 15 15 15 15 15 14 14 14 13 13 13 13 13 13 13 12 12 12 12 12 12 12
22 21 21 21 20 20 19 19 19 18 18 17 17 17 16 16 16 16 16 15 15 15 15 15 14 14 14 14 13 13 13 13 13 12 12 12 12 12 12 12 12 12 12
21 21 20 20 20 19 19 19 18 18 18 17 17 17 16 16 16 16 16 15 15 15 15 14 14 14 14 14 13 13 13 13 12 12 12 12 12 12 12 12 12 12 12
21 20 20 20 19 19 19 18 18 18 17 17 16 16 16 16 16 16 15 15 15 15 14 14 14 14 14 13 13 13 13 12 12 12 12 12 12 11 11 11 11 11 11
20 20 19 19 19 18 18 18 17 17 17 16 16 16 16 15 15 15 15 15 15 14 14 14 14 14 13 13 13 13 13 12 12 12 12 12 12 11 11 11 11 11 11
20 19 19 19 18 18 18 17 17 17 16 16 16 16 15 15 15 15 15 15 14 14 14 14 13 13 13 13 13 13 12 12 12 12 12 12 11 11 11 11 11 10 10
19 19 18 18 18 18 17 17 17 16 16 15 15 15 15 15 15 15 15 14 14 14 14 13 13 13 13 13 13 12 12 12 12 12 11 11 11 11 11 11 10 10 10
18 18 18 18 18 17 17 17 16 16 16 15 15 15 15 15 15 15 14 14 14 14 13 13 13 13 13 13 12 12 12 12 12 11 11 11 11 11 11 10 10 10 10
18 18 17 17 17 17 17 16 16 16 15 15 15 15 15 15 14 14 14 14 13 13 13 13 13 13 12 12 12 12 12 11 11 11 11 11 11 10 10 10 10 10 10
Wind_Speed
5 4 4 4 3 3 3 4 4 3 3 2 2 1 1 0 1 1 1 1 0 0 1 1 1 0 1 1 0 0 0 0 0 1 2 2 1 0 0 1 1 2 2
4 4 4 4 4 4 4 4 3 3 3 2 2 2 1 1 0 1 1 1 1 0 0 1 0 0 0 0 1 1 1 0 1 1 1 1 2 2 1 0 1 1 1
6 5 4 5 4 4 5 5 4 4 3 3 2 2 2 2 2 2 2 2 1 1 0 1 1 1 1 0 1 1 1 1 0 1 2 2 1 1 1 1 1 0 0
6 5 5 5 5 5 4 4 4 3 3 4 4 4 2 1 1 1 1 2 2 2 1 0 1 1 0 0 1 1 1 2 1 0 0 1 2 1 0 1 1 1 1
8 7 7 6 5 4 4 4 4 3 3 3 4 4 2 2 1 1 1 1 2 2 2 1 1 0 0 0 0 0 1 1 2 1 1 1 1 1 1 1 2 1 1
7 6 5 4 4 4 4 4 4 3 2 3 3 4 3 2 1 0 1 1 1 2 2 1 1 0 0 1 1 1 1 1 1 1 1 2 1 2 2 2 1 1 1
7 7 6 6 5 5 5 4 4 3 2 3 3 3 3 3 3 2 2 1 1 1 2 1 1 1 1 1 1 1 1 1 2 2 2 2 2 1 2 2 1 1 1
7 8 8 7 6 6 5 5 5 4 3 3 3 3 3 2 2 2 2 2 2 2 2 1 1 1 1 0 1 1 1 1 1 1 1 1 1 1 2 2 2 1 0
8 8 7 6 6 6 6 6 6 4 3 3 3 2 2 2 2 2 1 1 1 1 1 1 1 1 1 0 1 0 1 0 0 1 1 1 1 1 2 2 3 3 2
6 6 6 6 6 6 5 5 5 5 3 3 3 3 2 2 2 1 1 1 1 1 1 1 0 1 1 1 1 0 0 1 0 0 0 0 0 1 1 2 2 2 3
7 7 6 6 6 5 5 5 4 4 3 3 2 2 2 1 1 1 1 1 1 1 0 0 0 0 1 1 1 1 1 1 1 1 0 1 0 1 1 1 2 2 2
5 6 6 5 5 5 5 5 5 4 4 3 3 2 1 1 1 1 1 1 1 1 1 0 0 0 1 1 1 1 1 0 0 1 1 1 1 1 1 1 1 2 2
5 5 5 5 5 5 5 5 5 4 4 4 3 2 1 1 1 2 1 1 1 1 0 0 0 1 1 1 1 0 0 0 0 0 0 0 1 1 0 1 1 1 1
6 6 6 5 5 5 5 5 4 4 4 4 3 2 2 2 2 2 1 1 1 0 0 0 0 0 1 1 0 1 0 0 1 0 0 0 1 1 1 1 1 1 1
6 7 7 6 5 5 4 4 4 4 4 4 3 3 3 2 2 1 1 1 1 1 0 1 1 0 1 0 1 1 1 0 1 1 1 0 1 1 1 1 1 2 2
7 8 7 6 6 6 5 4 4 4 4 4 4 3 2 2 2 2 1 1 1 0 1 1 1 0 0 1 1 2 1 1 1 1 1 1 1 1 1 1 2 3 3
7 7 7 7 6 6 5 5 4 4 4 4 3 3 3 2 2 2 1 1 2 1 1 1 1 0 1 1 2 2 2 1 0 0 1 1 1 2 1 1 1 1 1
6 6 6 6 6 5 5 4 4 4 4 4 3 3 3 3 2 1 2 2 1 1 1 1 1 1 2 1 1 2 2 1 0 0 0 0 1 1 1 1 1 1 1
6 5 6 6 6 6 5 5 4 4 4 4 4 4 3 3 2 2 2 2 1 1 1 1 1 1 2 2 2 2 1 1 0 1 0 0 1 2 1 1 0 1 2
3 4 4 5 5 5 6 6 5 4 4 4 4 4 3 3 3 3 2 1 2 2 1 1 1 1 2 2 1 3 2 1 1 1 1 1 1 2 0 1 1 1 2
3 4 5 5 5 5 6 6 4 4 3 2 2 2 2 3 3 2 1 1 1 1 0 1 1 1 2 2 1 3 2 2 2 2 2 1 1 1 1 2 2 2 1
3 4 5 4 3 5 6 5 4 3 2 2 2 2 1 2 2 2 1 1 1 1 0 0 2 2 2 2 2 2 3 4 3 3 3 2 2 2 2 2 2 1 1
3 4 4 4 3 4 5 5 3 3 3 2 2 2 1 1 1 2 1 1 1 1 1 1 2 2 2 2 2 2 3 4 3 3 3 3 2 1 1 1 1 1 1
2 3 5 4 3 3 4 4 3 3 4 3 2 2 2 1 1 1 2 2 2 2 2 2 3 3 2 2 2 2 2 2 2 2 2 1 1 1 1 1 1 1 1
2 3 4 4 4 3 3 3 4 4 4 3 2 1 2 2 2 1 2 3 3 4 4 4 3 3 4 4 4 2 2 2 2 1 0 0 0 1 1 1 1 1 1
2 2 3 3 2 3 3 2 3 4 4 3 2 2 2 2 2 1 1 1 2 3 4 5 4 4 5 5 4 4 3 2 3 2 1 2 2 2 3 2 2 2 2
Wind_Direction
205 185 185 179 161 163 167 175 172 166 145 132 137 144 192 279 347 329 308 306 309 101 117 69 56 87 161 199 164 134 88 17 56 51 6 3 5 62 171 209 207 212 218
195 188 187 178 175 178 185 185 183 169 170 172 163 158 150 176 214 340 354 334 343 339 77 75 72 63 158 97 118 130 138 53 93 125 102 11 356 11 23 32 210 211 203
198 194 189 187 181 189 193 194 187 179 177 161 119 95 70 38 24 7 352 339 331 332 23 68 83 70 140 190 215 170 154 157 47 110 140 144 218 304 343 350 347 31 164
193 190 190 190 193 201 189 177 175 176 175 156 149 149 151 172 244 264 317 338 351 349 349 9 79 77 80 148 236 166 166 145 173 198 93 169 161 161 304 332 334 340 322
192 195 197 196 196 188 176 170 161 168 169 165 167 161 164 190 230 316 345 339 342 340 336 330 45 58 336 250 261 112 142 163 173 174 166 153 124 162 170 266 313 340 326
190 195 194 182 183 172 165 160 157 169 158 156 160 164 168 175 169 274 312 319 330 338 340 344 17 324 260 241 210 177 174 187 167 175 164 161 166 185 177 206 248 284 321
184 189 192 186 186 178 173 167 163 172 162 154 159 171 178 185 198 217 241 268 302 308 300 314 300 277 252 243 208 179 207 201 186 197 203 193 203 180 173 176 203 221 307
186 191 199 192 188 185 178 172 174 182 172 169 181 181 184 191 207 209 212 232 250 260 278 272 281 284 286 283 188 191 234 220 217 220 212 206 227 203 183 179 172 181 284
189 192 196 188 184 184 185 179 176 179 178 181 180 175 189 197 201 198 198 225 250 275 309 298 284 292 314 351 108 103 264 37 253 251 231 225 242 219 204 191 184 177 199
184 188 188 184 184 184 177 168 172 179 177 167 172 180 183 185 185 171 206 238 263 299 8 0 335 356 8 35 79 314 300 83 12 257 214 216 239 186 190 188 180 180 179
190 183 181 177 173 162 157 162 165 160 158 164 175 164 165 174 162 175 226 239 245 252 292 269 326 4 20 50 64 10 40 66 26 13 19 272 117 99 107 127 138 149 156
179 169 166 160 158 158 159 166 165 164 172 169 165 169 165 150 156 217 249 234 236 249 245 240 57 1 28 52 64 357 52 89 19 359 12 337 70 71 88 116 143 164 171
161 154 154 164 168 169 170 171 169 174 174 161 159 161 172 182 209 234 248 235 226 241 256 124 75 6 23 27 36 82 46 35 22 332 262 345 83 68 78 120 147 168 166
165 163 168 175 177 179 178 174 176 177 169 155 161 181 210 217 224 228 232 228 206 183 209 200 151 84 67 55 65 98 58 22 14 360 350 175 163 192 189 162 180 157 136
173 176 178 178 174 177 181 180 179 174 166 160 178 209 216 205 200 207 225 228 197 208 196 108 73 63 98 50 130 139 120 81 36 27 13 15 67 93 135 147 172 159 155
189 189 183 179 180 182 185 180 181 175 161 168 189 200 192 190 202 212 204 206 244 223 121 132 140 116 30 61 131 138 146 119 93 26 4 10 22 21 57 99 152 167 169
195 191 190 189 187 183 179 181 181 162 159 169 182 188 186 197 218 225 216 230 235 213 210 205 177 221 269 202 189 162 150 134 102 32 9 14 19 30 32 45 60 85 168
193 194 189 182 178 170 165 158 152 156 161 170 185 194 189 208 220 206 219 239 237 232 244 241 238 252 287 256 206 167 145 128 110 320 253 333 344 0 54 73 36 2 338
196 195 188 173 160 160 161 146 151 161 167 188 202 205 197 203 207 215 230 228 217 248 265 250 238 249 283 278 195 152 144 141 303 316 311 223 301 329 76 107 56 337 332
180 175 161 148 153 162 151 146 159 171 196 215 217 206 197 199 207 218 225 223 211 232 256 279 264 245 267 276 192 161 161 192 268 301 310 287 296 320 198 175 197 277 297
160 156 151 159 170 156 145 150 161 195 212 212 217 198 198 206 204 204 204 200 205 202 232 294 299 275 266 280 242 176 181 213 239 262 276 281 285 291 216 189 209 242 263
130 144 153 162 153 146 147 155 183 198 149 150 174 185 193 212 190 165 184 173 159 168 201 302 315 311 298 275 272 237 216 209 217 247 259 260 257 249 229 212 233 224 165
144 148 153 147 138 151 157 166 187 146 136 150 184 194 183 191 169 170 190 196 171 195 238 248 275 296 309 306 293 269 242 223 222 243 253 261 251 232 244 263 246 181 169
145 143 144 149 163 170 167 167 160 148 150 174 201 193 188 202 186 186 193 200 208 218 228 238 252 273 289 295 307 300 271 247 235 250 279 277 231 231 277 282 246 200 195
148 149 158 171 185 178 175 162 154 151 163 186 199 195 188 188 192 208 219 219 224 215 217 227 227 233 261 264 250 240 249 238 224 196 159 15 325 290 288 288 279 247 209
147 148 155 167 182 172 172 171 168 161 166 186 198 204 203 197 199 211 285 280 242 250 224 221 221 236 245 256 250 246 249 239 178 159 225 248 251 256 265 269 272 260 249
Height
1515 1516 1517 1519 1520 1520 1521 1522 1522 1523 1524 1524 1525 1525 1525 1525 1525 1525 1524 1524 1523 1522 1522 1521 1521 1521 1521 1521 1521 1521 1521 1521 1521 1521 1521 1522 1523 1524 1525 1526 1527 1527 1528
1513 1515 1516 1517 1518 1519 1520 1521 1522 1523 1523 1524 1524 1525 1525 1525 1525 1525 1524 1524 1523 1522 1522 1521 1521 1521 1521 1520 1520 1520 1520 1520 1520 1521 1521 1521 1523 1523 1523 1524 1525 1526 1526
1512 1513 1515 1516 1517 1518 1519 1520 1521 1522 1522 1523 1523 1524 1524 1524 1524 1524 1524 1524 1523 1523 1522 1521 1521 1520 1520 1520 1519 1519 1519 1519 1520 1520 1521 1520 1520 1521 1522 1523 1523 1524 1524
1510 1512 1513 1514 1516 1517 1518 1519 1520 1521 1521 1522 1522 1523 1523 1523 1523 1523 1523 1523 1523 1522 1522 1521 1520 1520 1519 1519 1519 1518 1518 1519 1519 1519 1519 1520 1520 1520 1521 1522 1522 1522 1523
1508 1510 1512 1513 1515 1516 1517 1518 1519 1520 1521 1521 1521 1522 1522 1523 1523 1523 1522 1522 1522 1522 1521 1521 1519 1519 1519 1518 1518 1517 1517 1517 1517 1517 1518 1518 1518 1519 1519 1519 1520 1521 1521
1506 1509 1510 1512 1514 1515 1516 1517 1518 1519 1520 1520 1521 1521 1521 1522 1522 1522 1522 1521 1521 1521 1521 1520 1519 1518 1518 1517 1516 1516 1516 1516 1516 1516 1516 1516 1517 1517 1517 1518 1518 1519 1519
1504 1506 1508 1510 1512 1514 1515 1516 1517 1518 1519 1520 1520 1520 1521 1521 1521 1521 1521 1521 1520 1520 1520 1519 1518 1517 1517 1517 1516 1515 1515 1515 1515 1515 1515 1515 1515 1515 1515 1516 1516 1517 1517
1502 1504 1506 1508 1510 1512 1514 1515 1516 1517 1518 1519 1519 1520 1520 1520 1520 1520 1520 1520 1520 1519 1519 1518 1517 1517 1516 1516 1515 1514 1514 1513 1513 1513 1513 1513 1513 1513 1513 1514 1515 1515 1515
1500 1502 1505 1507 1509 1511 1512 1513 1515 1516 1517 1518 1518 1519 1519 1519 1519 1519 1519 1519 1519 1518 1518 1517 1516 1516 1515 1515 1514 1513 1512 1512 1512 1512 1511 1511 1511 1511 1511 1512 1513 1514 1513
1499 1501 1503 1505 1507 1509 1511 1512 1514 1515 1516 1517 1517 1517 1518 1518 1518 1518 1518 1518 1518 1517 1517 1516 1516 1515 1514 1514 1513 1512 1512 1511 1511 1510 1510 1509 1509 1509 1510 1510 1510 1511 1512
1497 1499 1501 1504 1506 1508 1510 1511 1512 1513 1515 1515 1516 1517 1517 1517 1517 1517 1517 1517 1517 1516 1516 1515 1514 1513 1513 1512 1512 1511 1511 1510 1510 1509 1509 1508 1508 1508 1508 1508 1508 1509 1510
1495 1498 1500 1502 1505 1506 1508 1510 1511 1512 1513 1514 1515 1515 1516 1516 1516 1516 1516 1516 1516 1515 1515 1514 1513 1512 1512 1511 1510 1510 1510 1509 1508 1508 1508 1507 1507 1506 1507 1507 1507 1507 1507
1494 1497 1499 1501 1503 1505 1507 1508 1509 1511 1512 1512 1513 1514 1514 1514 1514 1514 1514 1514 1514 1514 1513 1512 1512 1511 1511 1510 1510 1509 1509 1508 1507 1507 1506 1506 1505 1505 1505 1505 1505 1505 1506
1493 1495 1497 1500 1502 1504 1506 1507 1508 1509 1510 1511 1512 1512 1513 1513 1513 1513 1513 1512 1512 1512 1511 1511 1511 1510 1510 1509 1508 1508 1507 1506 1506 1505 1505 1505 1504 1504 1504 1504 1504 1504 1504
1491 1494 1496 1498 1500 1502 1504 1505 1506 1508 1509 1509 1510 1511 1511 1512 1512 1511 1511 1511 1511 1510 1510 1510 1509 1509 1508 1508 1507 1506 1506 1505 1505 1504 1504 1503 1503 1503 1502 1502 1502 1502 1502
1489 1491 1494 1496 1498 1500 1502 1503 1505 1506 1507 1508 1509 1509 1510 1510 1510 1510 1509 1509 1509 1509 1509 1508 1508 1507 1507 1506 1505 1505 1504 1504 1503 1503 1502 1502 1501 1501 1501 1500 1501 1501 1501
1488 1490 1492 1494 1495 1498 1500 1502 1503 1505 1506 1506 1507 1507 1508 1508 1508 1508 1508 1508 1508 1508 1507 1507 1506 1506 1505 1504 1504 1503 1503 1502 1502 1501 1501 1500 1500 1500 1500 1499 1499 1499 1499
1486 1488 1490 1492 1494 1496 1498 1500 1502 1503 1504 1505 1505 1506 1506 1506 1506 1506 1506 1506 1506 1506 1505 1505 1504 1504 1503 1503 1502 1502 1502 1501 1500 1500 1499 1499 1498 1498 1498 1498 1498 1497 1497
1485 1487 1489 1490 1493 1495 1497 1498 1500 1501 1502 1503 1503 1504 1504 1504 1504 1504 1504 1504 1504 1503 1503 1503 1502 1502 1501 1501 1501 1500 1500 1499 1499 1498 1498 1497 1497 1497 1497 1496 1496 1496 1496
1484 1486 1487 1489 1491 1493 1495 1496 1498 1499 1500 1501 1501 1502 1502 1502 1502 1502 1502 1502 1502 1501 1501 1501 1500 1500 1499 1499 1499 1499 1498 1497 1497 1497 1496 1496 1496 1496 1495 1494 1494 1493 1494
1483 1485 1486 1488 1489 1491 1493 1494 1496 1497 1498 1500 1501 1501 1500 1501 1501 1500 1500 1500 1500 1500 1499 1499 1499 1498 1498 1497 1497 1497 1496 1496 1495 1495 1494 1494 1494 1493 1493 1492 1492 1491 1492
1482 1483 1485 1486 1488 1490 1491 1492 1494 1496 1497 1498 1499 1498 1499 1499 1499 1498 1498 1498 1498 1498 1497 1497 1497 1496 1496 1495 1495 1495 1494 1494 1494 1493 1493 1492 1492 1491 1491 1490 1490 1490 1490
1481 1483 1484 1485 1486 1488 1489 1490 1492 1494 1495 1495 1496 1497 1497 1497 1497 1496 1496 1496 1496 1495 1495 1495 1494 1494 1494 1493 1493 1493 1492 1492 1491 1491 1490 1490 1489 1489 1488 1488 1487 1487 1487
1480 1482 1483 1484 1485 1486 1487 1489 1490 1492 1493 1494 1494 1494 1494 1495 1494 1494 1494 1494 1493 1493 1493 1493 1492 1492 1492 1491 1491 1491 1490 1490 1489 1489 1488 1487 1487 1486 1486 1485 1485 1485 1485
1480 1481 1482 1483 1484 1485 1486 1487 1488 1490 1491 1491 1492 1492 1492 1492 1491 1491 1491 1491 1491 1491 1490 1490 1490 1490 1489 1489 1489 1488 1488 1487 1487 1486 1486 1485 1484 1484 1483 1483 1482 1482 1482
1479 1480 1481 1482 1483 1485 1485 1486 1487 1488 1489 1489 1489 1489 1489 1489 1489 1488 1488 1488 1488 1488 1488 1488 1488 1487 1487 1487 1487 1486 1486 1485 1485 1484 1483 1482 1482 1481 1480 1480 1480 1479 1479